Change the Weather History Date:

Sunday, April 20, 2014

  Actual Average Record
Temperature  
Mean Temperature 59 °F -  
Max Temperature 65 °F 75 °F 87 °F (2006)
Min Temperature 53 °F 52 °F 41 °F (2001)
Degree Days  
Heating Degree Days 6    
Growing Degree Days 9 (Base 50)    
Moisture  
Dew Point 52 °F    
Average Humidity 83    
Maximum Humidity 96    
Minimum Humidity 68    
Precipitation  
Precipitation 0.00 in - - ()
Sea Level Pressure  
Sea Level Pressure 30.15 in    
Wind  
Wind Speed 9 mph (NNE)    
Max Wind Speed 13 mph    
Max Gust Speed 17 mph    
Visibility 10 miles    
Events      
Averages and records for this station are not official NWS values.
T = Trace of Precipitation, MM = Missing Value Source: NWS Daily Summary

Daily Weather History Graph

Daily Weather History Graph

Search for Another Location

Airport or City:

Trip Planner

Search our weather history database for the weather conditions in past years. The results will help you decide how hot, cold, wet, or windy it might be!

Date:

Astronomy

Apr. 20, 2014 Rise Set
Actual Time 6:09 AM CDT 7:14 PM CDT
Civil Twilight 5:44 AM CDT 7:39 PM CDT
Nautical Twilight 5:14 AM CDT 8:09 PM CDT
Astronomical Twilight 4:43 AM CDT 8:40 PM CDT
Moon No Moon Rise 10:36 AM CDT (4/20)
Length of Visible Light 13h 55m
Length of Day
13h 05m
Waning Gibbous, 68% of the Moon is Illuminated
Apr 20
Waning Gibbous
Apr 22
Last Quarter
Apr 29
New
May 6
First Quarter
May 14
Full

Hourly Weather History & Observations

Time (CDT) Temp. Dew Point Humidity Pressure Visibility Wind Dir Wind Speed Gust Speed Precip Events Conditions
12:13 AM 57.2 °F 53.6 °F 88% 30.12 in 10.0 mi NNE 9.2 mph - N/A   Overcast
12:53 AM 57.2 °F 53.6 °F 88% 30.11 in 10.0 mi NNE 11.5 mph - N/A   Overcast
12:58 AM 57.2 °F 53.1 °F 86% 30.12 in 10.0 mi NNE 12.7 mph - N/A   Overcast
1:58 AM 56.3 °F 52.5 °F 87% 30.11 in 10.0 mi NNE 8.1 mph - N/A   Overcast
2:38 AM 55.4 °F 51.8 °F 88% 30.10 in 10.0 mi NNE 8.1 mph - N/A   Overcast
2:48 AM 55.4 °F 51.8 °F 88% 30.10 in 10.0 mi NNE 8.1 mph - N/A   Mostly Cloudy
2:53 AM 55.4 °F 51.8 °F 88% 30.10 in 10.0 mi NNE 9.2 mph - N/A   Scattered Clouds
2:58 AM 54.5 °F 52.0 °F 91% 30.11 in 10.0 mi NNE 6.9 mph - N/A   Scattered Clouds
3:58 AM 53.4 °F 51.4 °F 93% 30.11 in 10.0 mi North 6.9 mph - N/A   Mostly Cloudy
4:23 AM 53.6 °F 51.8 °F 94% 30.09 in 10.0 mi NNE 9.2 mph - N/A   Scattered Clouds
4:53 AM 53.6 °F 50.0 °F 88% 30.09 in 10.0 mi NNE 9.2 mph - N/A   Mostly Cloudy
4:58 AM 53.6 °F 50.7 °F 90% 30.11 in 10.0 mi NNE 8.1 mph - N/A   Mostly Cloudy
5:58 AM 54.3 °F 50.5 °F 87% 30.13 in 10.0 mi NE 10.4 mph - N/A   Overcast
6:38 AM 53.6 °F 50.0 °F 88% 30.15 in 10.0 mi NE 5.8 mph - N/A   Overcast
6:48 AM 53.6 °F 50.0 °F 88% 30.15 in 10.0 mi ENE 10.4 mph - N/A   Overcast
6:53 AM 55.4 °F 50.0 °F 82% 30.16 in 10.0 mi NE 9.2 mph - N/A   Overcast
6:58 AM 54.5 °F 49.8 °F 84% 30.17 in 10.0 mi NE 8.1 mph - N/A   Overcast
7:58 AM 54.3 °F 49.8 °F 85% 30.18 in 10.0 mi NE 12.7 mph 17.3 mph N/A   Overcast
8:58 AM 54.7 °F 49.5 °F 83% 30.20 in 10.0 mi NE 10.4 mph - N/A   Overcast
9:58 AM 55.2 °F 50.0 °F 83% 30.22 in 10.0 mi NE 6.9 mph - N/A   Overcast
10:58 AM 56.3 °F 50.5 °F 81% 30.22 in 10.0 mi NNE 8.1 mph - N/A   Overcast
11:58 AM 56.5 °F 50.5 °F 80% 30.21 in 10.0 mi NNE 9.2 mph - N/A   Overcast
12:18 PM 57.2 °F 50.0 °F 77% 30.20 in 10.0 mi NNE 10.4 mph - N/A   Overcast
12:58 PM 58.5 °F 50.9 °F 76% 30.20 in 10.0 mi NNE 11.5 mph - N/A   Overcast
1:58 PM 60.3 °F 52.2 °F 75% 30.19 in 10.0 mi NNE 10.4 mph - N/A   Overcast
2:58 PM 62.1 °F 52.7 °F 71% 30.18 in 10.0 mi ENE 9.2 mph - N/A   Overcast
3:58 PM 64.0 °F 53.2 °F 68% 30.16 in 10.0 mi NNE 9.2 mph - N/A   Overcast
4:28 PM 64.4 °F 53.6 °F 68% 30.14 in 10.0 mi North 5.8 mph - N/A   Overcast
4:38 PM 64.4 °F 53.6 °F 68% 30.14 in 10.0 mi ENE 5.8 mph - N/A   Overcast
4:53 PM 64.4 °F 53.6 °F 68% 30.14 in 10.0 mi NNE 8.1 mph - N/A   Overcast
4:58 PM 64.8 °F 54.1 °F 68% 30.15 in 10.0 mi NNE 6.9 mph - N/A   Overcast
5:58 PM 65.1 °F 55.0 °F 70% 30.14 in 10.0 mi NE 4.6 mph - N/A   Mostly Cloudy
6:58 PM 63.3 °F 55.6 °F 76% 30.13 in 10.0 mi NNE 2.3 mph - N/A   Clear
7:58 PM 58.8 °F 55.2 °F 88% 30.14 in 10.0 mi ESE 3.5 mph - N/A   Clear
8:58 PM 57.2 °F 54.9 °F 92% 30.14 in 10.0 mi SSE 2.3 mph - N/A   Clear
9:58 PM 54.1 °F 52.9 °F 95% 30.16 in 10.0 mi West 3.5 mph - N/A   Clear
10:58 PM 54.5 °F 53.4 °F 96% 30.15 in 10.0 mi WNW 2.3 mph - N/A   Clear
11:58 PM 54.9 °F 53.2 °F 94% 30.15 in 10.0 mi NNW 1.2 mph - N/A   Clear